GW7273 Weather Reports


time (UTC)temp
C
wind
direction
speed
KPH
gust
KPH
rain 1hr
cm
rain 24hr
cm
rain mn
cm
humidity
%
barometer
mb
20260504233045 13 10 1.6 1.6 0.00 0.00 0.00 79 1012.1
20260504231542 13 24 0.0 3.2 0.00 0.00 0.00 76 1012.0
20260504230041 14 78 0.0 1.6 0.00 0.00 0.00 75 1012.1
20260504224541 14 81 0.0 1.6 0.00 0.00 0.00 74 1012.2
20260504223042 15 0 0.0 1.6 0.00 0.00 0.00 74 1012.3
20260504221543 15 349 1.6 3.2 0.00 0.00 0.00 71 1012.3
20260504220044 15 6 0.0 3.2 0.00 0.00 0.00 70 1012.3
20260504214537 16 8 1.6 4.8 0.00 0.00 0.00 69 1012.3
20260504213100 16 17 1.6 3.2 0.00 0.00 0.00 68 1012.3
20260504211541 16 73 3.2 6.4 0.00 0.00 0.00 67 1012.3
20260504210040 16 352 1.6 4.8 0.00 0.00 0.00 68 1012.1
20260504204545 16 357 3.2 4.8 0.00 0.00 0.00 69 1012.1
20260504203052 16 0 0.0 3.2 0.00 0.00 0.00 77 1012.0
20260504201542 16 311 1.6 1.6 0.00 0.00 0.00 72 1012.1
20260504200041 17 311 0.0 0.0 0.00 0.00 0.00 68 1012.0
20260504194555 17 0 0.0 0.0 0.00 0.00 0.00 65 1012.0
20260504193050 17 311 0.0 1.6 0.00 0.00 0.00 67 1012.1
20260504191544 18 311 0.0 0.0 0.00 0.00 0.00 63 1012.0
20260504190050 18 0 0.0 0.0 0.00 0.00 0.00 57 1012.0
20260504184543 19 311 0.0 1.6 0.00 0.00 0.00 57 1012.0
20260504183042 19 310 0.0 3.2 0.00 0.00 0.00 55 1011.8
20260504181544 20 345 1.6 3.2 0.00 0.00 0.00 54 1011.8
20260504180040 20 307 3.2 6.4 0.00 0.00 0.00 52 1011.7
20260504174545 20 316 3.2 8.0 0.00 0.00 0.00 51 1011.7
20260504173049 21 309 1.6 6.4 0.00 0.00 0.00 50 1011.6
20260504171543 21 316 3.2 14.5 0.00 0.00 0.00 49 1011.6
20260504081541 21 234 6.4 8.0 0.00 0.00 0.00 47 1013.1
20260504044551 14 251 6.4 14.5 0.00 0.00 0.00 55 1012.1
20260504043046 13 196 6.4 19.3 0.00 0.00 0.00 55 1012.1
20260504041541 14 213 8.0 16.1 0.00 0.00 0.00 55 1011.9
20260504040043 13 179 8.0 12.9 0.00 0.00 0.00 55 1011.7
20260504034551 13 201 6.4 11.3 0.00 0.00 0.00 55 1011.8
20260504033051 13 168 8.0 12.9 0.00 0.00 0.00 55 1011.6
20260504031538 13 198 4.8 11.3 0.00 0.00 0.00 54 1011.7
20260504030036 14 129 6.4 14.5 0.00 0.00 0.00 54 1011.8
20260504024545 14 203 8.0 14.5 0.00 0.00 0.00 53 1011.7
20260504023043 14 200 6.4 11.3 0.00 0.00 0.00 53 1011.8
20260504021542 14 196 6.4 11.3 0.00 0.00 0.00 53 1011.8
20260504020041 14 197 4.8 11.3 0.00 0.00 0.00 52 1011.9
20260504014536 15 143 8.0 12.9 0.00 0.00 0.00 52 1011.9
20260504013043 15 221 6.4 12.9 0.00 0.00 0.00 50 1011.8
20260504011545 15 206 4.8 9.7 0.00 0.00 0.00 50 1011.8
20260504010052 15 202 6.4 16.1 0.00 0.00 0.00 49 1011.8
20260504004542 16 216 6.4 12.9 0.00 0.00 0.00 48 1011.9
20260504003038 16 181 9.7 16.1 0.00 0.00 0.00 47 1011.9
20260504001541 16 163 8.0 16.1 0.00 0.00 0.00 47 1011.8
20260504000045 16 181 8.0 14.5 0.00 0.00 0.00 46 1011.9
20260503234544 16 203 6.4 14.5 0.00 0.00 0.00 45 1011.9